Time,TemperatureF,DewpointF,PressureIn,WindDirection,WindDirectionDegrees,WindSpeedMPH,WindSpeedGustMPH,Humidity,HourlyPrecipIn,Conditions,Clouds,dailyrainin,SoftwareType,DateUTC
2013-07-16 00:12:00,78.0,74.0,30.08,East,92,0.0,6.0,88,0.00,,,0.00,,2013-07-16 04:12:00,
2013-07-16 00:32:00,78.0,74.0,30.09,East,97,1.0,7.0,88,0.00,,,0.00,,2013-07-16 04:32:00,
2013-07-16 00:43:00,79.0,74.0,30.09,SE,128,3.0,8.0,85,0.00,,,0.00,,2013-07-16 04:43:00,
2013-07-16 00:53:00,79.0,74.0,30.09,ESE,105,1.0,7.0,85,0.00,,,0.00,,2013-07-16 04:53:00,
2013-07-16 01:01:00,79.0,74.0,30.09,ESE,105,1.0,7.0,85,0.00,,,0.00,,2013-07-16 05:01:00,
2013-07-16 01:11:00,79.0,74.0,30.09,East,95,1.0,7.0,85,0.00,,,0.00,,2013-07-16 05:11:00,
2013-07-16 01:22:00,79.0,74.0,30.08,ESE,120,3.0,11.0,85,0.00,,,0.00,,2013-07-16 05:22:00,
2013-07-16 01:32:00,79.0,74.0,30.08,ESE,120,3.0,11.0,85,0.00,,,0.00,,2013-07-16 05:32:00,
2013-07-16 01:43:00,78.0,73.0,30.08,East,86,5.0,13.0,84,0.00,,,0.00,,2013-07-16 05:43:00,
2013-07-16 01:52:00,78.0,73.0,30.08,SE,143,2.0,8.0,85,0.00,,,0.00,,2013-07-16 05:52:00,
2013-07-16 02:01:00,78.0,73.0,30.08,SE,143,2.0,8.0,85,0.00,,,0.00,,2013-07-16 06:01:00,
2013-07-16 02:11:00,78.0,73.0,30.08,East,90,3.0,8.0,86,0.00,,,0.00,,2013-07-16 06:11:00,
2013-07-16 02:32:00,78.0,73.0,30.07,East,96,1.0,8.0,86,0.00,,,0.00,,2013-07-16 06:32:00,
2013-07-16 02:43:00,77.0,73.0,30.07,East,82,1.0,5.0,88,0.00,,,0.00,,2013-07-16 06:43:00,
2013-07-16 03:01:00,77.0,73.0,30.07,ESE,115,2.0,7.0,88,0.00,,,0.00,,2013-07-16 07:01:00,
2013-07-16 03:12:00,77.0,73.0,30.07,East,81,2.0,6.0,88,0.00,,,0.00,,2013-07-16 07:12:00,
2013-07-16 03:22:00,77.0,73.0,30.07,East,81,2.0,6.0,88,0.00,,,0.00,,2013-07-16 07:22:00,
2013-07-16 03:32:00,77.0,73.0,30.07,SE,127,3.0,8.0,88,0.00,,,0.00,,2013-07-16 07:32:00,
2013-07-16 03:43:00,77.0,74.0,30.07,East,98,2.0,10.0,89,0.00,,,0.00,,2013-07-16 07:43:00,
2013-07-16 03:52:00,77.0,74.0,30.07,ESE,103,2.0,7.0,89,0.00,,,0.00,,2013-07-16 07:52:00,
2013-07-16 04:01:00,77.0,74.0,30.07,ESE,103,2.0,7.0,89,0.00,,,0.00,,2013-07-16 08:01:00,
2013-07-16 04:11:00,76.0,73.0,30.06,ESE,119,2.0,8.0,89,0.00,,,0.00,,2013-07-16 08:11:00,
2013-07-16 04:22:00,76.0,73.0,30.06,ESE,119,2.0,8.0,89,0.00,,,0.00,,2013-07-16 08:22:00,
2013-07-16 04:32:00,76.0,73.0,30.07,ENE,69,1.0,8.0,90,0.00,,,0.00,,2013-07-16 08:32:00,
2013-07-16 04:43:00,76.0,73.0,30.06,ESE,105,1.0,8.0,91,0.00,,,0.00,,2013-07-16 08:43:00,
2013-07-16 04:52:00,76.0,73.0,30.06,ESE,105,1.0,8.0,91,0.00,,,0.00,,2013-07-16 08:52:00,
2013-07-16 05:01:00,75.0,73.0,30.06,East,89,0.0,6.0,92,0.00,,,0.00,,2013-07-16 09:01:00,
2013-07-16 05:12:00,75.0,73.0,30.06,ENE,59,1.0,6.0,93,0.00,,,0.00,,2013-07-16 09:12:00,
2013-07-16 05:32:00,75.0,73.0,30.07,East,90,0.0,3.0,93,0.00,,,0.00,,2013-07-16 09:32:00,
2013-07-16 05:42:00,75.0,73.0,30.07,East,100,1.0,7.0,94,0.00,,,0.00,,2013-07-16 09:42:00,
2013-07-16 05:52:00,75.0,73.0,30.07,East,100,1.0,7.0,94,0.00,,,0.00,,2013-07-16 09:52:00,
2013-07-16 06:01:00,74.0,72.0,30.07,East,98,0.0,7.0,94,0.00,,,0.00,,2013-07-16 10:01:00,
2013-07-16 06:22:00,74.0,72.0,30.07,NE,48,2.0,9.0,94,0.00,,,0.00,,2013-07-16 10:22:00,
2013-07-16 06:31:00,74.0,72.0,30.08,East,83,1.0,4.0,95,0.00,,,0.00,,2013-07-16 10:31:00,
2013-07-16 06:43:00,74.0,72.0,30.08,East,92,0.0,5.0,95,0.00,,,0.00,,2013-07-16 10:43:00,
2013-07-16 06:52:00,74.0,72.0,30.08,East,92,0.0,5.0,95,0.00,,,0.00,,2013-07-16 10:52:00,
2013-07-16 07:01:00,74.0,72.0,30.09,ENE,69,0.0,6.0,95,0.00,,,0.00,,2013-07-16 11:01:00,
2013-07-16 07:22:00,74.0,72.0,30.09,East,84,0.0,5.0,95,0.00,,,0.00,,2013-07-16 11:22:00,
2013-07-16 07:32:00,74.0,72.0,30.09,ESE,111,1.0,5.0,95,0.00,,,0.00,,2013-07-16 11:32:00,
2013-07-16 08:01:00,74.0,72.0,30.10,East,90,0.0,7.0,94,0.00,,,0.00,,2013-07-16 12:01:00,
2013-07-16 08:22:00,75.0,73.0,30.10,East,79,0.0,7.0,93,0.00,,,0.00,,2013-07-16 12:22:00,
2013-07-16 08:32:00,76.0,74.0,30.11,ESE,118,0.0,5.0,92,0.00,,,0.00,,2013-07-16 12:32:00,
2013-07-16 09:11:00,79.0,74.0,30.11,East,91,3.0,7.0,86,0.00,,,0.00,,2013-07-16 13:11:00,
2013-07-16 09:32:00,80.0,75.0,30.11,East,92,1.0,8.0,85,0.00,,,0.00,,2013-07-16 13:32:00,
2013-07-16 10:02:00,81.0,75.0,30.11,NNE,31,3.0,9.0,81,0.00,,,0.00,,2013-07-16 14:02:00,
2013-07-16 10:32:00,83.0,75.0,30.11,SE,127,3.0,9.0,77,0.00,,,0.00,,2013-07-16 14:32:00,
2013-07-16 10:43:00,84.0,74.0,30.11,NE,34,4.0,12.0,73,0.00,,,0.00,,2013-07-16 14:43:00,
2013-07-16 10:52:00,84.0,74.0,30.11,NE,34,4.0,12.0,73,0.00,,,0.00,,2013-07-16 14:52:00,
2013-07-16 11:01:00,85.0,75.0,30.12,East,82,5.0,12.0,71,0.00,,,0.00,,2013-07-16 15:01:00,
2013-07-16 11:11:00,86.0,76.0,30.13,ESE,115,3.0,10.0,72,0.00,,,0.00,,2013-07-16 15:11:00,
2013-07-16 11:32:00,85.0,74.0,30.13,ENE,76,6.0,11.0,70,0.00,,,0.00,,2013-07-16 15:32:00,
2013-07-16 11:43:00,86.0,74.0,30.13,East,92,4.0,12.0,68,0.00,,,0.00,,2013-07-16 15:43:00,
2013-07-16 12:01:00,87.0,73.0,30.13,SE,140,4.0,12.0,64,0.00,,,0.00,,2013-07-16 16:01:00,
2013-07-16 12:22:00,88.0,74.0,30.13,ESE,118,4.0,11.0,64,0.00,,,0.00,,2013-07-16 16:22:00,
2013-07-16 12:32:00,88.0,73.0,30.13,East,91,4.0,10.0,61,0.00,,,0.00,,2013-07-16 16:32:00,
2013-07-16 12:43:00,89.0,75.0,30.12,ESE,108,2.0,8.0,63,0.00,,,0.00,,2013-07-16 16:43:00,
2013-07-16 12:52:00,89.0,75.0,30.12,ESE,108,2.0,8.0,63,0.00,,,0.00,,2013-07-16 16:52:00,
2013-07-16 13:02:00,89.0,74.0,30.12,ESE,107,2.0,16.0,61,0.00,,,0.00,,2013-07-16 17:02:00,
2013-07-16 13:12:00,90.0,74.0,30.12,East,87,3.0,9.0,59,0.00,,,0.00,,2013-07-16 17:12:00,
2013-07-16 13:33:00,89.0,72.0,30.11,East,93,6.0,10.0,58,0.00,,,0.00,,2013-07-16 17:33:00,
2013-07-16 13:43:00,90.0,73.0,30.11,East,91,2.0,10.0,58,0.00,,,0.00,,2013-07-16 17:43:00,
2013-07-16 14:01:00,91.0,74.0,30.10,East,82,4.0,9.0,58,0.00,,,0.00,,2013-07-16 18:01:00,
2013-07-16 14:11:00,91.0,73.0,30.09,ESE,104,3.0,10.0,56,0.00,,,0.00,,2013-07-16 18:11:00,
2013-07-16 14:33:00,91.0,73.0,30.09,ENE,66,6.0,12.0,55,0.00,,,0.00,,2013-07-16 18:33:00,
2013-07-16 14:43:00,91.0,72.0,30.09,ENE,64,5.0,13.0,54,0.00,,,0.00,,2013-07-16 18:43:00,
2013-07-16 14:52:00,91.0,72.0,30.09,ENE,64,5.0,13.0,54,0.00,,,0.00,,2013-07-16 18:52:00,
2013-07-16 15:01:00,91.0,72.0,30.09,ENE,64,5.0,13.0,54,0.00,,,0.00,,2013-07-16 19:01:00,
2013-07-16 15:11:00,91.0,74.0,30.09,SE,144,3.0,14.0,57,0.00,,,0.00,,2013-07-16 19:11:00,
2013-07-16 15:32:00,91.0,71.0,30.09,SE,136,5.0,13.0,53,0.00,,,0.00,,2013-07-16 19:32:00,
2013-07-16 15:43:00,82.0,71.0,30.11,SSW,194,5.0,25.0,70,0.00,,,0.00,,2013-07-16 19:43:00,
2013-07-16 16:22:00,79.0,72.0,30.11,East,80,7.0,15.0,79,0.00,,,0.00,,2013-07-16 20:22:00,
2013-07-16 16:32:00,79.0,72.0,30.11,East,80,7.0,15.0,79,0.00,,,0.00,,2013-07-16 20:32:00,
2013-07-16 16:43:00,75.0,72.0,30.12,ESE,107,3.0,15.0,89,0.03,,,0.03,,2013-07-16 20:43:00,
2013-07-16 16:52:00,75.0,72.0,30.12,ESE,107,3.0,15.0,89,0.03,,,0.03,,2013-07-16 20:52:00,
2013-07-16 17:01:00,75.0,73.0,30.11,East,88,2.0,8.0,92,0.03,,,0.03,,2013-07-16 21:01:00,
2013-07-16 17:11:00,75.0,73.0,30.11,East,88,2.0,8.0,92,0.03,,,0.03,,2013-07-16 21:11:00,
2013-07-16 17:22:00,75.0,73.0,30.11,East,88,1.0,5.0,93,0.03,,,0.03,,2013-07-16 21:22:00,
2013-07-16 17:32:00,74.0,72.0,30.11,NE,34,0.0,7.0,93,0.03,,,0.03,,2013-07-16 21:32:00,
2013-07-16 17:52:00,74.0,72.0,30.10,NNE,32,1.0,5.0,92,0.00,,,0.03,,2013-07-16 21:52:00,
2013-07-16 18:01:00,74.0,72.0,30.09,ESE,103,2.0,8.0,92,0.00,,,0.03,,2013-07-16 22:01:00,
2013-07-16 18:22:00,75.0,72.0,30.09,East,88,3.0,5.0,91,0.00,,,0.03,,2013-07-16 22:22:00,
2013-07-16 18:33:00,75.0,72.0,30.10,ESE,113,3.0,7.0,90,0.00,,,0.03,,2013-07-16 22:33:00,
2013-07-16 18:43:00,75.0,72.0,30.11,NE,51,0.0,7.0,90,0.00,,,0.03,,2013-07-16 22:43:00,
2013-07-16 18:52:00,75.0,72.0,30.11,NE,51,0.0,7.0,90,0.00,,,0.03,,2013-07-16 22:52:00,
2013-07-16 19:01:00,75.0,72.0,30.10,ESE,107,1.0,3.0,89,0.00,,,0.03,,2013-07-16 23:01:00,
2013-07-16 19:11:00,76.0,72.0,30.10,East,81,2.0,7.0,88,0.00,,,0.03,,2013-07-16 23:11:00,
2013-07-16 19:32:00,76.0,72.0,30.11,ENE,69,1.0,5.0,88,0.00,,,0.03,,2013-07-16 23:32:00,
2013-07-16 19:43:00,76.0,72.0,30.10,East,90,0.0,5.0,87,0.00,,,0.03,,2013-07-16 23:43:00,
2013-07-16 19:52:00,76.0,72.0,30.11,ENE,61,0.0,5.0,87,0.00,,,0.03,,2013-07-16 23:52:00,
2013-07-16 20:01:00,76.0,72.0,30.11,ENE,61,0.0,5.0,87,0.00,,,0.03,,2013-07-17 00:01:00,
2013-07-16 20:11:00,75.0,71.0,30.11,East,93,0.0,4.0,87,0.00,,,0.03,,2013-07-17 00:11:00,
2013-07-16 20:22:00,75.0,71.0,30.11,East,93,0.0,4.0,87,0.00,,,0.03,,2013-07-17 00:22:00,
2013-07-16 20:33:00,75.0,71.0,30.12,ESE,106,0.0,6.0,87,0.00,,,0.03,,2013-07-17 00:33:00,
2013-07-16 20:42:00,75.0,71.0,30.12,East,82,1.0,6.0,87,0.00,,,0.03,,2013-07-17 00:42:00,
2013-07-16 20:52:00,75.0,71.0,30.12,East,82,0.0,3.0,88,0.00,,,0.03,,2013-07-17 00:52:00,
2013-07-16 21:01:00,75.0,71.0,30.12,East,82,0.0,3.0,88,0.00,,,0.03,,2013-07-17 01:01:00,
2013-07-16 21:11:00,75.0,72.0,30.13,East,86,1.0,5.0,89,0.00,,,0.03,,2013-07-17 01:11:00,
2013-07-16 21:32:00,75.0,72.0,30.13,ENE,57,0.0,3.0,90,0.00,,,0.03,,2013-07-17 01:32:00,
2013-07-16 21:43:00,74.0,71.0,30.13,East,84,0.0,3.0,90,0.00,,,0.03,,2013-07-17 01:43:00,
2013-07-16 21:53:00,74.0,71.0,30.13,East,84,0.0,3.0,90,0.00,,,0.03,,2013-07-17 01:53:00,
2013-07-16 22:01:00,74.0,71.0,30.13,East,99,0.0,7.0,90,0.00,,,0.03,,2013-07-17 02:01:00,
2013-07-16 22:22:00,74.0,71.0,30.13,ESE,108,0.0,5.0,90,0.00,,,0.03,,2013-07-17 02:22:00,
2013-07-16 22:32:00,74.0,71.0,30.13,East,95,1.0,7.0,90,0.00,,,0.03,,2013-07-17 02:32:00,
2013-07-16 22:43:00,74.0,71.0,30.14,ESE,113,1.0,4.0,91,0.00,,,0.03,,2013-07-17 02:43:00,
2013-07-16 22:53:00,74.0,71.0,30.14,ESE,113,1.0,4.0,91,0.00,,,0.03,,2013-07-17 02:53:00,
2013-07-16 23:01:00,74.0,71.0,30.14,ENE,76,1.0,5.0,91,0.00,,,0.03,,2013-07-17 03:01:00,
2013-07-16 23:22:00,74.0,72.0,30.14,East,97,0.0,3.0,92,0.00,,,0.03,,2013-07-17 03:22:00,
2013-07-16 23:32:00,74.0,72.0,30.14,East,101,0.0,3.0,92,0.00,,,0.03,,2013-07-17 03:32:00,
2013-07-16 23:43:00,74.0,72.0,30.14,East,90,0.0,6.0,92,0.00,,,0.03,,2013-07-17 03:43:00,